Retour au catalogue

SL-16 DEB

ActifLEO
NORAD 31799·DEBRIS·🇷🇺 Russia

Lancé Jun 29, 2007 depuis Baikonur Cosmodrome

Loading…

Prochains Passages (prochaines 24 heures)

TLE

FraisSource: Space-Track

Époque: Sep 14, 2026, 05:13 UTC

1 31799U 07029F   26257.21754126  .00000102  00000-0  14578-3 0  9998
2 31799  70.9439 173.6898 0225262  41.2754 108.1499 13.66488397957555

Suivez SL-16 DEB en temps réel avec AllMySat

Download on the App Store